Location: Fort Worth, Tx
(32.7431°N, 97.3695°W)
Time: 01:28:44
(UTC-04:00)

A-11 Canister half - Pass Details

Date: 27 February 2024
Orbit: 1525 x 1683 km, 47.3° (Epoch: 24 April)

Event Time Altitude Azimuth Distance (km) Brightness Sun altitude
Rises 22:29:01 0° 260° (W) 4,785 12.3 -39.1°
Reaches altitude 10° 22:32:21 10° 267° (W) 3,778 11.6 -39.8°
Maximum altitude 22:41:22 45° 338° (NNW) 2,017 9.7 -41.6°
Enters shadow 22:42:23 44° 354° (N) 2,046 9.6 -41.8°
